This is the latest recevied weather packets stored in our database for station/object K1BES. If no packets are shown the sender has not sent any weather packets the latest 10 day(s).
| Time | Temp. | Humidity | Pressure | Rain* | Wind** | Luminosity | Snow |
|---|---|---|---|---|---|---|---|
| 1788385674 | 28.89° C | 84% | 1015.4 hPa | 0 mm | - | 108 W/m² | - |
| 1788385373 | 28.89° C | 84% | 1015.4 hPa | 0 mm | - | 103 W/m² | - |
| 1788385068 | 28.89° C | 85% | 1015.4 hPa | 0 mm | - | 103 W/m² | - |
| 1788384768 | 29.44° C | 85% | 1015.1 hPa | 0 mm | - | 108 W/m² | - |
| 1788384467 | 29.44° C | 83% | 1015.2 hPa | 0 mm | - | 120 W/m² | - |
| 1788384164 | 30° C | 81% | 1015.5 hPa | 1.27 mm | - | 130 W/m² | - |
| 1788383860 | 30° C | 81% | 1015.7 hPa | 0 mm | - | 156 W/m² | - |
| 1788383556 | 30.56° C | 81% | 1015.5 hPa | 1.78 mm | - | 206 W/m² | - |
| 1788383256 | 31.11° C | 78% | 1015.3 hPa | 1.78 mm | - | 293 W/m² | - |
| 1788382951 | 31.11° C | 76% | 1015.5 hPa | 0 mm | - | 317 W/m² | - |
| 1788382649 | 32.22° C | 69% | 1015.5 hPa | 0 mm | - | 268 W/m² | - |
| 1788382344 | 32.22° C | 70% | 1015.7 hPa | 0 mm | - | 326 W/m² | - |
| 1788382040 | 32.78° C | 70% | 1015.5 hPa | 0 mm | - | 328 W/m² | - |
| 1788381735 | 32.78° C | 71% | 1015.6 hPa | 0 mm | - | 331 W/m² | - |
| 1788381430 | 32.22° C | 70% | 1015.3 hPa | 0 mm | - | 331 W/m² | - |
| 1788381129 | 32.22° C | 73% | 1015.5 hPa | 0 mm | - | 314 W/m² | - |
| 1788380824 | 31.67° C | 72% | 1015.2 hPa | 0 mm | - | 250 W/m² | - |
| 1788380521 | 32.22° C | 72% | 1015.4 hPa | 0 mm | - | 249 W/m² | - |
| 1788380217 | 32.22° C | 71% | 1015.4 hPa | 0 mm | - | 215 W/m² | - |
| 1788379916 | 32.22° C | 73% | 1015.3 hPa | 0 mm | - | 649 W/m² | - |
| 1788379611 | 32.22° C | 70% | 1015.4 hPa | 0 mm | - | 690 W/m² | - |
| 1788379307 | 32.78° C | 71% | 1015.7 hPa | 0 mm | - | 760 W/m² | - |
| 1788379003 | 32.78° C | 70% | 1015.6 hPa | 0 mm | - | 759 W/m² | - |
| 1788378702 | 32.22° C | 71% | 1015.7 hPa | 0 mm | - | 802 W/m² | - |
| 1788378401 | 32.22° C | 72% | 1015.5 hPa | 0 mm | - | 804 W/m² | - |
* Rain latest hour (hover to see other rain measurements)
** Current wind speed in m/s (hover to see current wind gust speed)